Home > Weather > Timișoara > Past weeks

Flag for Romania Weather for the Past 2 Weeks in Timișoara, Romania

Now
37 °F

Clear.


Feels Like: 31 °F
Forecast: 36 / 51 °F
Wind: 9 mph from East

Location: Timisoara Airport

Current Time: Feb 8, 2016 at 12:35:48 AM

Latest Report: Feb 7, 2016 at 11:30 PM


Visibility: 10 mi

Pressure: 30.09 "Hg

Humidity: 81%

Dew point: 32 °F

Location of TimișoaraLocation

Historic Weather in Timișoara — Graph

°F

Timișoara Temperature Yesterday

Maximum temperature yesterday: 54 °F (at 2:30 PM)
Minimum temperature yesterday: 30 °F (at 2:30 AM)
Average temperature yesterday: 39 °F

High & Low Weather Summary for the Past Weeks

 TemperatureHumidityPressure
High61 °F (Feb 2, 2:00 PM)100% (Jan 24, 12:00 AM)30.57 "Hg (Jan 24, 12:00 AM)
Low14 °F (Jan 24, 12:00 AM)44% (Feb 7, 2:30 PM)29.80 "Hg (Feb 3, 9:30 PM)
Average38 °F91%30.25 "Hg
* Reported Jan 23 11:30 PM — Feb 7 11:00 PM, Timișoara, Weather by CustomWeather, © 2016

Note: Actual official high and low records may vary slightly from our data, if they occured in-between our weather recording intervals... More about our weather records

Advertising

Timișoara Weather History for the Previous 24 Hours

 ConditionsComfort  
Time TempWeatherWind HumidityBarometerVisibility
11:00 PM
Sun, Feb 7
37 °FClear.10 mph75%30.09 "Hg10 mi
10:30 PM37 °FClear.12 mph81%30.09 "Hg10 mi
10:00 PM39 °FClear.8 mph75%30.09 "Hg10 mi
9:30 PM37 °FClear.9 mph81%30.09 "Hg10 mi
9:00 PM36 °FClear.8 mph87%30.09 "Hg10 mi
8:30 PM36 °FClear.10 mph87%30.09 "Hg10 mi
8:00 PM36 °FClear.9 mph87%30.09 "Hg10 mi
7:30 PM39 °FClear.9 mph81%30.09 "Hg10 mi
7:00 PM41 °FClear.8 mph76%30.09 "Hg10 mi
6:30 PM45 °FClear.8 mph61%30.09 "Hg10 mi
6:00 PM46 °FClear.8 mph62%30.09 "Hg10 mi
5:30 PM50 °FSunny.8 mph58%30.09 "Hg10 mi
5:00 PM52 °FSunny.7 mph54%30.09 "Hg10 mi
4:30 PM52 °FSunny.7 mph54%30.09 "Hg10 mi
4:00 PM52 °FSunny.7 mph50%30.09 "Hg10 mi
3:30 PM54 °FSunny.10 mph44%30.09 "Hg10 mi
3:00 PM54 °FSunny.12 mph44%30.12 "Hg10 mi
2:30 PM54 °FPassing clouds.12 mph44%30.12 "HgN/A
2:00 PM52 °FSunny.9 mph54%30.12 "Hg10 mi
1:30 PM48 °FSunny.8 mph62%30.15 "Hg10 mi
1:00 PM46 °FSunny.9 mph62%30.18 "Hg10 mi
12:30 PM46 °FPassing clouds.9 mph66%30.18 "HgN/A
12:00 PM45 °FSunny.12 mph66%30.18 "Hg10 mi
11:30 AM43 °FSunny.13 mph71%30.21 "Hg10 mi
11:00 AM41 °FSunny.13 mph70%30.21 "Hg10 mi
10:30 AM41 °FSunny.13 mph66%30.21 "Hg10 mi
10:00 AM39 °FSunny.12 mph70%30.21 "Hg10 mi
9:30 AM37 °FSunny.12 mph75%30.21 "Hg10 mi
9:00 AM36 °FSunny.10 mph81%30.21 "Hg10 mi
8:30 AM34 °FSunny.10 mph81%30.21 "Hg10 mi
8:00 AM32 °FSunny.13 mph87%30.21 "Hg10 mi
7:30 AM32 °FClear.12 mph87%30.21 "Hg10 mi
7:00 AM32 °FClear.12 mph87%30.21 "Hg10 mi
6:30 AM32 °FClear.10 mph87%30.21 "Hg10 mi
6:00 AM30 °FClear.10 mph93%30.21 "Hg10 mi
5:30 AM30 °FClear.12 mph93%30.24 "Hg10 mi
5:00 AM32 °FClear.13 mph87%30.24 "Hg10 mi
4:30 AM32 °FClear.12 mph87%30.24 "Hg10 mi
4:00 AM30 °FClear.10 mph93%30.24 "Hg10 mi
3:30 AM32 °FClear.9 mph87%30.27 "Hg10 mi
3:00 AM32 °FClear.12 mph93%30.27 "Hg10 mi
2:30 AM30 °FClear.10 mph93%30.27 "Hg10 mi
2:00 AM32 °FClear.9 mph93%30.27 "Hg10 mi
1:30 AM32 °FClear.10 mph93%30.30 "Hg10 mi
1:00 AM32 °FClear.8 mph93%30.30 "Hg10 mi
12:30 AM32 °FClear.10 mph100%30.30 "Hg10 mi
Weather by CustomWeather, © 2016

See weather overviewHow to use our weather pages